EW6987 Weather Reports


Display with metric or nautical units.
time (UTC)temp
F
wind
direction
speed
MPH
gust
MPH
rain 1hr
in
rain 24hr
in
rain mn
in
humidity
%
barometer
mb
20260505130143 63 260 6.0 12.0 0.00 0.00 0.00 71 1010.4
20260505124542 62 158 5.0 12.0 0.00 0.00 0.00 72 1010.4
20260505123041 62 164 6.0 14.0 0.00 0.00 0.00 73 1010.5
20260505121539 61 287 3.0 12.0 0.00 0.00 0.00 74 1010.5
20260505120036 61 225 4.0 12.0 0.00 0.00 0.00 74 1010.2
20260505114539 61 250 3.0 10.0 0.00 0.00 0.00 75 1009.8
20260505113030 61 189 6.0 13.0 0.00 0.00 0.00 74 1009.1
20260505111532 61 184 5.0 13.0 0.00 0.00 0.00 73 1008.8
20260505101515 62 209 8.0 15.0 0.00 0.00 0.00 72 1008.3
20260505100013 62 169 9.0 14.0 0.00 0.00 0.00 71 1008.3
20260505094510 62 194 5.0 11.0 0.00 0.00 0.00 71 1008.2
20260505093008 63 192 5.0 14.0 0.00 0.00 0.00 70 1007.9
20260505091506 63 186 4.0 14.0 0.00 0.00 0.00 69 1007.6
20260505090003 64 201 8.0 17.0 0.00 0.00 0.00 69 1007.8
20260505084502 64 202 5.0 16.0 0.00 0.00 0.00 69 1007.6
20260505083100 64 183 7.0 14.0 0.00 0.00 0.00 70 1007.3
20260505081604 64 197 5.0 12.0 0.00 0.00 0.00 71 1007.3
20260505080058 64 226 5.0 9.0 0.00 0.00 0.00 70 1007.0
20260505074610 64 193 3.0 8.0 0.00 0.00 0.00 70 1006.9
20260505073057 64 234 4.0 9.0 0.00 0.00 0.00 69 1007.0
20260505071556 64 198 4.0 10.0 0.00 0.00 0.00 70 1007.0
20260505070055 63 187 3.0 6.0 0.00 0.00 0.00 73 1007.2
20260505064553 63 226 1.0 4.0 0.00 0.00 0.00 74 1007.3
20260505063056 64 201 1.0 6.0 0.00 0.00 0.00 73 1007.7
20260505061614 66 235 4.0 11.0 0.00 0.00 0.00 67 1007.9
20260505060046 68 242 5.0 17.0 0.00 0.00 0.00 64 1007.9
20260505054555 68 181 8.0 15.0 0.00 0.00 0.00 61 1007.0
20260505053043 68 179 6.0 14.0 0.00 0.00 0.00 62 1006.9
20260505051539 68 162 8.0 15.0 0.00 0.00 0.00 63 1007.0
20260505041529 67 122 8.0 14.0 0.00 0.00 0.00 63 1007.4
20260505040026 67 102 7.0 12.0 0.00 0.00 0.00 63 1007.5
20260505034525 67 124 8.0 17.0 0.00 0.00 0.00 62 1007.7
20260505033034 67 153 4.0 11.0 0.00 0.00 0.00 63 1007.8
20260505031524 67 220 7.0 14.0 0.00 0.00 0.00 62 1007.9
20260505030023 68 233 3.0 11.0 0.00 0.00 0.00 61 1008.1
20260505024547 68 174 6.0 16.0 0.00 0.00 0.00 59 1008.2
20260505023025 68 164 6.0 15.0 0.00 0.00 0.00 58 1008.0
20260505021541 69 167 8.0 14.0 0.00 0.00 0.00 56 1008.0
20260505020020 69 166 5.0 13.0 0.00 0.00 0.00 54 1008.0
20260505014524 69 173 4.0 12.0 0.00 0.00 0.00 54 1008.0
20260505013019 70 194 6.0 16.0 0.00 0.00 0.00 53 1007.8
20260505011519 70 194 5.0 10.0 0.00 0.00 0.00 54 1007.5
20260505010017 70 142 5.0 9.0 0.00 0.00 0.00 52 1007.4
20260505004524 71 178 5.0 11.0 0.00 0.00 0.00 52 1007.4
20260505003016 71 153 5.0 17.0 0.00 0.00 0.00 51 1007.1
20260505001515 71 214 7.0 16.0 0.00 0.00 0.00 51 1006.8
20260505000015 72 148 6.0 15.0 0.00 0.00 0.00 51 1006.9
20260504234614 72 215 8.0 15.0 0.00 0.00 0.00 51 1006.8
20260504233014 73 160 7.0 17.0 0.00 0.00 0.00 50 1006.6
20260504231513 73 164 7.0 17.0 0.00 0.00 0.00 50 1006.6
20260504230013 74 177 7.0 15.0 0.00 0.00 0.00 49 1006.4
20260504224511 74 125 8.0 17.0 0.00 0.00 0.00 50 1006.4
20260504223010 75 210 9.0 17.0 0.00 0.00 0.00 48 1006.6
20260504221508 75 189 10.0 18.0 0.00 0.00 0.00 49 1006.9
20260504220005 75 151 7.0 20.0 0.00 0.00 0.00 49 1006.9
20260504214503 74 153 7.0 15.0 0.00 0.00 0.00 52 1007.1
20260504213003 74 129 5.0 16.0 0.00 0.00 0.00 50 1007.1
20260504211600 75 194 7.0 16.0 0.00 0.00 0.00 51 1007.2
20260504204609 75 194 10.0 22.0 0.00 0.00 0.00 51 1007.7
20260504203053 75 173 9.0 22.0 0.00 0.00 0.00 50 1008.0
20260504201550 75 203 10.0 26.0 0.00 0.00 0.00 49 1008.1
20260504200052 75 198 8.0 20.0 0.00 0.00 0.00 47 1008.3
20260504194547 75 183 9.0 18.0 0.00 0.00 0.00 47 1008.7
20260504193044 74 157 7.0 16.0 0.00 0.00 0.00 48 1009.0
20260504191542 74 214 7.0 16.0 0.00 0.00 0.00 48 1009.2
20260504190040 73 188 8.0 19.0 0.00 0.00 0.00 49 1009.4
20260504184537 73 203 8.0 16.0 0.00 0.00 0.00 48 1009.7
20260504183034 73 199 6.0 15.0 0.00 0.00 0.00 48 1009.9
20260504181530 72 127 7.0 15.0 0.00 0.00 0.00 50 1010.1
20260504180027 72 148 7.0 15.0 0.00 0.00 0.00 50 1010.4
20260504174525 72 220 7.0 14.0 0.00 0.00 0.00 51 1010.6
20260504173022 72 185 6.0 13.0 0.00 0.00 0.00 53 1010.8
20260504171518 71 125 7.0 14.0 0.00 0.00 0.00 52 1010.9